Binghamton, NY

11:18 PM EDT on June 26, 2017 (GMT -0400)
Binghamton Regional-Link

Weather History for KBGM - February, 2014

Change the Weather History Date:

Monday, February 24, 2014

  Actual Average Record
Temperature  
Mean Temperature 20 °F 27 °F  
Max Temperature 26 °F 34 °F 70 °F (2017)
Min Temperature 14 °F 19 °F -10 °F (2015)
Degree Days  
Heating Degree Days 45 38  
Month to date heating degree days 1043 976  
Since 1 July heating degree days 5253 5048  
Cooling Degree Days 0 0  
Month to date cooling degree days 0 0  
Year to date cooling degree days 0 0  
Moisture  
Dew Point 10 °F    
Average Humidity 67    
Maximum Humidity 84    
Minimum Humidity 50    
Precipitation  
Precipitation T in 0.09 in 1.80 in (1998)
Month to date precipitation 2.74 1.96  
Year to date precipitation 5.68 4.41  
Snow  
Snow 0.40 in 0.60 in 18.10 in (1998)
Month to date snowfall 25.8 14.6  
Since 1 July snowfall 82.2 61.4  
Snow Depth 7.00 in    
Sea Level Pressure  
Sea Level Pressure 29.92 in    
Wind  
Wind Speed 11 mph (WNW)    
Max Wind Speed 20 mph    
Max Gust Speed 29 mph    
Visibility 6 miles    
Events Fog , Snow    
T = Trace of Precipitation, MM = Missing Value Source: NWS Daily Summary

Daily Weather History Graph

Daily Weather History Graph

Search for Another Location

Airport or City:

Trip Planner

Search our weather history database for the weather conditions in past years. The results will help you decide how hot, cold, wet, or windy it might be!

Date:

Astronomy

Feb. 24, 2014 Rise Set
Actual Time 6:47 AM EST 5:47 PM EST
Civil Twilight 6:18 AM EST 6:16 PM EST
Nautical Twilight 5:46 AM EST 6:48 PM EST
Astronomical Twilight 5:13 AM EST 7:21 PM EST
Moon 2:46 AM EST (2/24) 12:43 PM EST (2/24)
Length of Visible Light 11h 57m
Length of Day
11h 00m
Waning Crescent, 28% of the Moon is Illuminated
Feb 24
Waning Crescent
Mar 1
New
Mar 8
First Quarter
Mar 16
Full
Mar 23
Last Quarter

Hourly Weather History & Observations

Time (EST) Temp. Windchill Dew Point Humidity Pressure Visibility Wind Dir Wind Speed Gust Speed Precip Events Conditions
12:53 AM 24.1 °F 13.7 °F 14.0 °F 65% 29.88 in 10.0 mi NNW 10.4 mph - N/A   Clear
1:53 AM 23.0 °F 13.9 °F 12.0 °F 63% 29.87 in 10.0 mi NW 8.1 mph - N/A   Clear
2:53 AM 21.9 °F 15.7 °F 10.9 °F 63% 29.86 in 10.0 mi NW 4.6 mph - N/A   Clear
3:53 AM 23.0 °F 13.1 °F 10.9 °F 60% 29.87 in 10.0 mi West 9.2 mph - N/A   Overcast
4:53 AM 21.9 °F 8.7 °F 8.1 °F 55% 29.88 in 10.0 mi WNW 15.0 mph 20.7 mph N/A   Mostly Cloudy
5:53 AM 19.9 °F 8.6 °F 6.1 °F 55% 29.89 in 10.0 mi WNW 10.4 mph 23.0 mph N/A   Overcast
6:53 AM 19.0 °F 6.1 °F 7.0 °F 59% 29.89 in 10.0 mi WNW 12.7 mph - N/A   Overcast
7:53 AM 19.0 °F 6.1 °F 7.0 °F 59% 29.92 in 9.0 mi West 12.7 mph 21.9 mph 0.00 in   Overcast
8:53 AM 19.9 °F 7.9 °F 6.1 °F 55% 29.92 in 10.0 mi West 11.5 mph - N/A   Overcast
9:53 AM 19.9 °F 7.3 °F 9.0 °F 62% 29.91 in 10.0 mi WNW 12.7 mph - N/A   Overcast
10:53 AM 21.0 °F 8.1 °F 10.9 °F 65% 29.92 in 8.0 mi West 13.8 mph 21.9 mph 0.00 in Snow Light Snow
11:53 AM 21.0 °F 9.3 °F 10.0 °F 63% 29.92 in 6.0 mi NW 11.5 mph - 0.00 in Snow Light Snow
12:22 PM 19.4 °F 5.5 °F 10.4 °F 68% 29.84 in 4.0 mi West 15.0 mph 23.0 mph 0.00 in Snow Light Snow
12:53 PM 21.0 °F 9.3 °F 12.0 °F 68% 29.91 in 8.0 mi NW 11.5 mph 21.9 mph 0.00 in Snow Light Snow
1:41 PM 21.2 °F 6.8 °F 12.2 °F 68% 29.83 in 1.8 mi NW 17.3 mph 25.3 mph 0.00 in Snow Light Snow
1:46 PM 19.4 °F 4.5 °F 12.2 °F 74% 29.83 in 0.8 mi NW 17.3 mph 25.3 mph 0.00 in Snow Light Snow
1:53 PM 21.0 °F 9.9 °F 14.0 °F 74% 29.91 in 1.0 mi WNW 10.4 mph 25.3 mph 0.00 in Snow Light Snow
2:07 PM 19.4 °F 7.9 °F 15.8 °F 86% 29.84 in 0.2 mi NW 10.4 mph 23.0 mph 0.00 in Fog , Snow Snow
2:15 PM 19.4 °F 7.2 °F 15.8 °F 86% 29.84 in 0.2 mi West 11.5 mph 20.7 mph 0.00 in Fog , Snow Snow
2:19 PM 19.4 °F 5.5 °F 15.8 °F 86% 29.84 in 0.5 mi West 15.0 mph 20.7 mph 0.00 in Fog , Snow Light Snow
2:28 PM 19.4 °F 7.2 °F 14.0 °F 80% 29.84 in 1.5 mi West 11.5 mph 20.7 mph 0.00 in Snow Light Snow
2:44 PM 19.4 °F 6.6 °F 12.2 °F 74% 29.85 in 2.0 mi West 12.7 mph 19.6 mph 0.00 in Snow Light Snow
2:49 PM 19.4 °F 4.5 °F 12.2 °F 74% 29.85 in 0.2 mi NW 17.3 mph 24.2 mph 0.00 in Snow Light Snow
2:53 PM 19.0 °F 5.0 °F 15.1 °F 85% 29.93 in 0.2 mi NW 15.0 mph 24.2 mph 0.00 in Fog , Snow Snow
3:05 PM 19.4 °F 7.2 °F 15.8 °F 86% 29.86 in 0.5 mi NW 11.5 mph 19.6 mph 0.00 in Snow Light Snow
3:12 PM 19.4 °F 7.9 °F 12.2 °F 74% 29.86 in 3.0 mi NW 10.4 mph 19.6 mph 0.00 in Snow Light Snow
3:39 PM 19.4 °F 6.6 °F 14.0 °F 80% 29.87 in 0.8 mi NW 12.7 mph 20.7 mph 0.00 in Snow Light Snow
3:53 PM 19.0 °F 7.5 °F 12.9 °F 77% 29.94 in 2.0 mi WNW 10.4 mph 20.7 mph 0.00 in Snow Light Snow
3:59 PM 19.4 °F 7.2 °F 10.4 °F 68% 29.87 in 6.0 mi WNW 11.5 mph 20.7 mph 0.00 in Snow Light Snow
4:53 PM 19.0 °F 3.6 °F 9.0 °F 65% 29.98 in 5.0 mi West 18.4 mph 25.3 mph 0.00 in Snow Light Snow
5:32 PM 17.6 °F 3.7 °F 10.4 °F 73% 29.92 in 1.8 mi WNW 13.8 mph 27.6 mph 0.00 in Snow Light Snow
5:39 PM 17.6 °F 3.7 °F 8.6 °F 68% 29.92 in 2.5 mi West 13.8 mph 21.9 mph 0.00 in Snow Light Snow
5:46 PM 17.6 °F 2.7 °F 8.6 °F 68% 29.92 in 9.0 mi West 16.1 mph 21.9 mph 0.00 in   Mostly Cloudy
5:53 PM 18.0 °F 4.8 °F 8.1 °F 65% 30.01 in 10.0 mi WNW 12.7 mph 21.9 mph 0.00 in   Mostly Cloudy
6:53 PM 18.0 °F 2.2 °F 3.9 °F 54% 30.03 in 10.0 mi West 18.4 mph 27.6 mph N/A   Overcast
7:53 PM 17.1 °F 5.8 °F 7.0 °F 65% 30.05 in 10.0 mi NW 9.2 mph - N/A   Overcast
8:53 PM 16.0 °F 3.6 °F 9.0 °F 74% 30.06 in 10.0 mi WNW 10.4 mph - N/A   Overcast
9:17 PM 15.8 °F 6.1 °F 8.6 °F 73% 29.97 in 10.0 mi WNW 6.9 mph - N/A   Overcast
9:24 PM 15.8 °F 7.2 °F 8.6 °F 73% 29.98 in 10.0 mi WNW 5.8 mph - N/A   Mostly Cloudy
9:34 PM 15.8 °F 6.1 °F 6.8 °F 68% 29.97 in 10.0 mi WNW 6.9 mph - N/A   Mostly Cloudy
9:44 PM 15.8 °F 7.2 °F 6.8 °F 68% 29.97 in 10.0 mi WNW 5.8 mph - N/A   Mostly Cloudy
9:53 PM 15.1 °F 5.2 °F 6.1 °F 68% 30.06 in 10.0 mi WNW 6.9 mph - N/A   Mostly Cloudy
10:53 PM 15.1 °F 2.5 °F 7.0 °F 70% 30.06 in 10.0 mi West 10.4 mph - N/A   Overcast
11:53 PM 15.1 °F 5.2 °F 9.0 °F 77% 30.06 in 7.0 mi WNW 6.9 mph - 0.00 in   Overcast